Dewpoint
53 53 53 54 53 54 54 55 55 55 56 56 56 55 56 55 55 55 55 55 55 54 55 56 54 55 46 42 43 50 54 54 54 54 48 45 41 40 38 34 29 27 28 28 30 29 27
55 55 54 53 54 53 54 55 55 55 56 56 56 55 56 56 55 55 56 56 54 54 54 53 54 54 43 38 48 49 51 53 52 51 47 45 39 39 33 29 28 29 29 29 30 26 26
55 55 54 54 54 54 54 54 54 55 55 56 56 56 55 56 56 55 55 55 56 56 56 54 54 42 40 40 47 50 50 51 51 51 47 46 40 37 31 27 30 29 24 27 28 29 24
56 55 55 54 55 55 54 54 54 54 55 55 56 56 55 55 55 55 55 56 57 55 56 55 55 42 39 48 48 46 48 49 51 51 50 49 44 36 31 30 29 26 26 23 25 27 24
54 54 54 54 54 54 54 54 54 54 54 55 55 55 55 55 55 56 56 57 56 56 54 55 42 43 41 50 46 45 46 45 48 48 48 44 37 30 29 27 24 25 22 21 23 29 25
53 53 53 54 54 54 54 54 54 54 54 54 55 55 55 55 55 55 55 55 54 47 43 41 37 40 44 41 44 43 43 43 41 44 41 37 30 27 26 23 19 21 21 22 21 25 24
53 53 53 53 53 54 54 53 53 53 54 54 54 54 54 55 55 55 46 40 37 34 38 34 35 36 37 38 42 39 40 42 46 36 28 29 26 23 24 24 21 22 21 22 25 27 23
52 53 53 53 54 54 54 54 53 53 53 53 54 54 54 54 54 51 44 39 41 41 32 35 36 36 37 39 34 40 41 35 31 28 27 25 23 26 29 29 23 23 21 23 24 25 18
53 53 53 53 53 54 54 54 54 53 53 53 54 54 54 54 53 45 41 41 45 44 30 30 35 35 35 36 33 34 38 34 29 29 27 26 29 30 28 27 23 24 19 21 17 24 25
52 52 53 53 54 54 55 56 55 54 53 53 53 53 53 53 40 41 41 44 46 43 27 26 31 33 34 36 29 35 38 34 29 28 30 30 31 30 28 28 25 21 27 25 23 15 14
52 51 52 53 53 54 55 55 54 54 54 53 53 52 53 48 40 39 43 45 43 33 13 26 31 36 33 30 31 31 36 33 31 31 27 28 29 27 27 28 29 25 27 26 25 22 16
51 52 53 53 53 54 54 55 55 54 54 53 52 51 50 45 43 44 46 44 37 25 11 26 32 31 29 30 30 32 33 34 34 28 30 30 33 32 30 30 29 28 25 25 25 19 10
52 52 53 53 53 54 55 55 55 55 54 53 51 51 47 46 41 45 43 38 26 18 25 25 29 31 29 28 28 30 29 30 26 19 21 26 28 33 34 27 28 28 20 14 10 12 10
52 53 53 53 53 53 54 55 55 55 54 53 52 49 48 45 46 44 38 29 17 23 26 30 30 29 25 27 26 29 27 26 30 27 24 17 11 30 34 30 25 28 24 15 3 12 15
52 52 53 53 53 53 54 55 55 55 54 53 49 45 40 41 45 41 33 24 20 25 30 30 28 24 23 26 25 27 28 28 30 30 23 23 22 32 34 35 28 27 24 26 22 19 15
52 53 53 53 53 53 54 55 55 54 54 49 43 41 40 44 45 36 32 27 29 33 34 31 24 25 23 25 24 25 25 30 30 31 31 29 20 30 33 34 33 29 28 17 20 8 8
53 53 53 53 54 54 54 54 55 54 53 48 41 31 39 45 41 35 27 26 31 34 34 31 30 27 27 26 24 26 27 30 32 30 30 30 24 26 30 27 24 29 27 28 24 23 16
52 53 53 54 54 54 54 54 54 54 53 44 36 31 40 41 33 32 30 32 36 33 34 33 31 29 27 25 24 27 28 30 33 33 29 30 28 23 21 30 32 29 26 27 20 16 23
52 53 53 54 54 54 54 54 54 54 53 41 36 36 41 35 26 28 32 33 34 33 32 32 30 30 28 25 21 27 30 34 34 33 30 29 23 19 17 22 28 27 30 27 26 26 23
51 53 53 54 54 54 54 53 53 53 52 42 33 32 34 34 32 30 28 30 30 34 33 32 30 29 26 25 25 24 28 33 35 34 38 31 25 19 12 15 25 25 27 29 27 21 22
51 52 53 53 54 54 54 53 53 53 51 41 35 31 32 29 29 29 29 28 29 29 32 31 28 28 26 21 22 22 30 31 34 37 33 26 15 21 24 23 23 23 23 27 28 26 23
52 52 53 53 53 53 53 53 53 52 49 39 31 31 34 31 31 29 29 26 27 28 29 29 27 28 27 23 21 19 23 28 26 32 29 30 16 24 21 23 23 22 22 23 25 28 28
53 52 52 53 53 53 53 53 53 52 46 38 38 36 36 34 30 29 27 26 28 29 31 31 29 28 27 28 31 31 31 29 29 30 30 29 24 23 15 23 20 14 15 21 22 23 23
53 53 52 52 52 52 52 52 53 52 46 41 39 38 35 30 31 30 28 29 29 30 30 31 30 28 31 34 33 32 31 31 30 29 32 29 26 25 22 20 9 17 20 18 20 21 22
54 53 53 52 52 52 52 52 52 52 49 43 41 39 36 31 34 31 31 30 30 30 27 28 31 34 34 31 25 21 22 21 27 29 29 29 27 23 21 19 18 17 18 18 17 17 22
55 54 53 53 52 51 52 51 52 52 50 44 41 40 39 34 29 31 28 29 29 27 27 28 33 35 33 30 25 18 17 18 21 25 29 29 28 24 23 19 15 16 20 22 21 15 24
55 55 54 53 53 52 52 51 52 52 52 46 43 40 40 35 36 32 31 30 30 30 30 29 30 31 32 27 24 23 22 21 19 22 24 26 25 24 23 22 23 25 25 23 15 16 25
50 52 54 53 53 52 52 51 51 52 52 47 43 42 42 36 37 37 34 32 32 33 31 31 32 32 30 27 26 26 24 23 18 21 23 24 23 23 23 22 19 26 23 19 21 26 26
47 49 51 54 53 52 52 51 52 52 52 50 45 44 43 42 39 40 40 39 37 35 34 33 32 31 32 28 28 27 25 23 21 20 23 20 23 23 24 24 25 27 24 26 27 27 29
Lifted_Index
11 11 11 11 10 10 10 9 9 9 9 8 8 7 6 5 5 4 3 3 2 2 1 0 0 1 1 1 1 0 -0 -1 -1 -0 0 0 1 2 3 5 6 7 7 7 7 7 7
10 10 10 10 10 10 10 9 9 9 9 8 7 7 6 5 5 4 3 2 2 2 1 0 0 1 1 1 1 1 -0 -1 -1 -0 0 0 1 2 3 4 6 6 6 7 7 7 7
9 10 10 10 10 10 10 9 9 9 9 8 8 7 6 6 5 4 3 2 2 2 1 1 1 2 2 2 2 1 0 -0 -0 0 0 0 1 2 3 4 5 5 6 6 7 7 7
9 9 9 9 9 9 9 9 9 9 9 8 8 7 7 6 5 5 4 3 2 2 2 2 2 2 2 2 2 1 1 1 0 1 1 1 1 2 3 4 5 5 5 6 6 6 7
10 10 9 9 9 9 9 9 9 9 9 9 8 8 7 6 6 5 5 4 3 3 3 3 3 3 2 2 2 2 2 2 2 2 2 1 1 2 3 4 4 5 5 6 6 6 7
10 10 10 10 9 9 9 9 9 9 9 9 9 8 8 7 6 6 5 4 4 4 4 4 3 3 2 3 3 3 4 3 3 2 2 2 2 3 3 4 4 5 5 6 6 6 7
10 10 10 10 10 9 9 9 9 9 9 9 9 9 8 8 7 6 6 5 5 4 4 4 3 3 3 3 3 3 3 3 3 2 2 2 2 3 4 4 5 5 5 5 6 6 6
10 10 10 10 10 9 9 9 9 9 9 9 9 9 9 8 7 7 6 5 5 5 4 4 3 3 3 3 3 3 3 3 3 2 2 2 2 3 4 5 5 5 5 4 5 6 6
10 10 10 10 9 9 9 9 9 9 9 9 9 9 9 8 8 7 7 6 6 5 4 4 3 3 3 3 3 3 3 3 2 2 2 2 2 3 4 5 5 5 4 4 4 5 5
10 10 10 10 9 9 9 8 8 9 9 9 9 9 9 9 8 8 8 8 7 6 4 4 3 3 3 3 3 3 3 2 2 2 2 2 3 3 4 5 5 4 4 4 4 3 3
11 11 10 10 10 9 9 8 8 9 9 10 10 10 9 9 9 9 9 8 7 5 4 3 4 3 3 3 3 3 3 3 2 2 2 2 3 3 4 4 4 4 5 4 4 3 2
11 11 10 10 10 9 9 8 8 8 9 9 10 10 10 9 10 10 9 8 6 5 4 4 4 4 4 4 3 3 3 3 2 2 2 3 3 4 4 4 4 5 4 4 3 2 2
11 11 10 10 10 9 9 8 8 8 9 9 10 9 9 9 10 10 9 8 5 4 5 5 5 4 4 4 4 4 3 3 3 3 2 3 3 4 4 4 5 5 4 2 1 1 1
11 11 10 10 10 9 9 8 8 8 9 9 9 9 8 9 9 9 8 6 5 5 6 6 5 5 5 4 4 4 4 3 3 3 3 2 3 4 5 5 5 5 4 2 1 1 1
11 11 10 10 10 9 9 8 8 8 9 9 9 8 8 8 8 8 7 5 5 6 6 6 6 5 5 5 5 4 4 4 4 4 3 2 3 4 5 6 6 5 5 4 3 2 1
11 11 10 10 10 9 9 8 8 8 9 9 9 8 7 7 7 7 6 5 6 7 7 7 6 5 5 5 5 5 5 5 5 4 4 3 3 4 5 5 5 5 5 5 4 3 1
11 11 10 10 10 9 9 8 8 8 9 9 8 8 7 7 7 7 6 6 7 7 7 7 6 6 5 5 5 5 5 5 5 5 5 4 3 3 4 5 5 5 5 5 5 3 2
11 11 10 10 10 9 9 9 9 9 8 8 8 7 8 7 7 6 6 6 7 8 8 7 7 7 6 6 5 5 5 6 6 6 6 6 4 3 4 5 5 5 5 5 5 4 3
11 11 10 10 10 9 9 9 9 9 9 8 8 8 8 7 6 6 6 6 7 8 8 8 8 8 7 7 6 6 6 7 7 7 7 7 5 4 4 5 6 6 5 6 5 4 4
11 11 10 10 10 10 10 10 10 10 9 9 8 8 8 8 7 7 6 6 7 7 8 8 8 8 8 7 7 7 7 8 8 8 8 8 6 5 5 6 6 6 6 7 6 5 4
11 11 10 10 10 10 10 11 11 11 10 10 9 9 8 8 8 8 7 7 7 7 7 7 7 7 6 6 6 6 7 8 9 9 9 8 7 6 6 7 7 7 7 7 7 6 5
10 10 11 11 11 11 11 11 11 11 11 10 10 10 9 9 8 8 8 8 7 7 7 7 7 6 6 6 6 7 7 8 8 9 9 8 7 6 6 7 7 6 6 7 7 6 6
10 10 10 11 11 11 11 11 11 11 11 11 11 10 10 9 9 9 8 8 8 8 8 8 7 7 7 7 8 8 8 7 7 7 8 7 6 5 5 5 5 5 6 6 6 7 7
9 9 10 11 11 11 11 11 11 11 11 11 11 10 10 9 9 9 9 9 9 8 8 8 8 8 9 9 9 9 8 7 7 7 7 6 6 5 4 4 4 5 6 6 6 7 8
8 9 9 10 11 11 11 11 11 11 11 11 11 10 10 9 9 9 9 9 9 8 9 9 9 9 9 9 8 7 7 7 7 7 7 7 6 5 4 4 4 5 6 7 7 7 8
8 8 9 9 10 11 11 11 11 11 11 11 11 10 10 10 10 9 9 9 8 8 9 9 9 9 9 8 7 6 6 6 6 6 7 8 7 6 5 4 4 6 7 8 7 7 7
8 8 8 8 9 10 11 11 11 11 11 11 11 11 10 10 10 10 9 9 9 9 9 9 9 9 8 8 7 6 6 6 6 6 6 7 7 6 6 5 5 7 8 8 7 7 8
9 9 8 8 8 9 10 10 10 10 10 11 11 11 11 10 10 10 9 9 9 9 9 9 9 8 8 8 7 7 6 6 6 6 6 6 6 6 6 5 6 7 8 8 8 8 8
11 10 9 8 8 8 9 10 10 10 10 10 11 11 11 10 10 10 9 9 9 9 9 9 9 8 8 8 7 7 7 6 6 6 6 6 6 6 6 6 6 7 8 8 8 8 8